This demonstration page uses our WeatherBlox Daily Observations layout. Learn more.

39.51506, -84.39828

Hourly Observations for November 20, 2018

Temp ( °F °C ) Dew Point ( °F °C ) Humidity (%) Winds ( mph kmh ) Pressure ( in mb ) Visibility ( mi km ) Precip ( " mm )
12:15 am 00:15 Cloudy 38 3.5 35 1.6 88 88 W 5 7 30.12 1020 10 16.0934 0 0
12:35 am 00:35 Cloudy 38 3.6 35 1.4 86 86 W 5 7 30.12 1020 10 16.0934 0 0
12:55 am 00:55 Cloudy 38 3.3 34 1.3 87 87 WNW 5 7 30.09 1019 10 16.0934 0 0
1:10 am 01:10 Cloudy 38 3.2 35 1.5 89 89 NW 3 6 30.09 1019 10 16.0934 0 0
1:35 am 01:35 Cloudy 38 3.1 33 0.6 84 84 NW 8 13 30.12 1020 10 16.0934 0 0
1:55 am 01:55 Cloudy 37 3 33 0.4 83 83 W 5 7 30.12 1020 10 16.0934 0 0
2:15 am 02:15 Cloudy 37 2.9 33 0.3 83 83 Calm 30.12 1020 10 16.0934 0 0
2:35 am 02:35 Cloudy 37 2.8 33 0.3 84 84 W 3 6 30.12 1020 10 16.0934 0 0
2:55 am 02:55 Cloudy 37 2.8 33 0.5 85 85 Calm 30.12 1020 10 16.0934 0 0
3:15 am 03:15 Cloudy 37 2.8 33 0.4 84 84 W 3 6 30.12 1020 10 16.0934 0 0
3:35 am 03:35 Cloudy 37 2.7 33 0.5 86 86 W 5 7 30.12 1020 10 16.0934 0 0
3:55 am 03:55 Cloudy 37 2.6 33 0.6 87 87 W 3 6 30.12 1020 10 16.0934 0 0
4:15 am 04:15 Cloudy 37 2.6 33 0.6 87 87 Calm 30.12 1020 10 16.0934 0 0
4:35 am 04:35 Cloudy 37 2.5 33 0.5 87 87 Calm 30.12 1020 10 16.0934 0 0
4:55 am 04:55 Cloudy 37 2.5 33 0.6 87 87 Calm 30.12 1020 10 16.0934 0 0
5:15 am 05:15 Cloudy 37 2.5 34 0.9 89 89 Calm 30.12 1020 10 16.0934 0 0
5:35 am 05:35 Cloudy 37 2.6 33 0.8 88 88 Calm 30.12 1020 10 16.0934 0 0
5:55 am 05:55 Cloudy 37 2.5 33 0.4 86 86 W 5 7 30.15 1021 10 16.0934 0 0
6:15 am 06:15 Cloudy 37 2.5 33 0.5 87 87 Calm 30.15 1021 10 16.0934 0 0
6:35 am 06:35 Cloudy 37 2.6 33 0.4 86 86 WSW 3 6 30.15 1021 10 16.0934 0 0
6:55 am 06:55 Cloudy with Mist and Fog 36 2.4 33 0.8 89 89 WSW 5 7 30.15 1021 5 8.0467 0 0
7:15 am 07:15 Cloudy with Light Drizzle 36 2.2 35 1.4 95 95 WSW 5 7 30.15 1021 2.5 4.02335 0 0
7:35 am 07:35 Cloudy with Light Drizzle 36 2.2 35 1.6 96 96 Calm 30.15 1021 2 3.21868 0 0
7:55 am 07:55 Cloudy with Light Rain 36 2.4 35 1.8 96 96 W 6 9 30.18 1022 2 3.21868 0 0
8:15 am 08:15 Cloudy with Light Drizzle 37 2.5 35 1.8 95 95 WSW 5 7 30.18 1022 1.75 2.816345 0 0
8:35 am 08:35 Cloudy with Light Rain 37 2.6 35 1.8 95 95 W 5 7 30.18 1022 3.5 5.63269 0 0
8:55 am 08:55 Cloudy with Mist and Fog 37 2.7 35 1.7 93 93 WNW 8 13 30.18 1022 4 6.43736 0 0
9:15 am 09:15 Cloudy with Light Drizzle 37 2.8 35 1.6 92 92 NW 8 13 30.21 1023 7 11.26538 0 0
9:35 am 09:35 Cloudy 37 2.7 34 1.1 89 89 WNW 7 11 30.21 1023 10 16.0934 0 0
9:55 am 09:55 Cloudy 37 3 35 1.4 89 89 WNW 5 7 30.21 1023 10 16.0934 0 0
10:15 am 10:15 Cloudy 38 3.5 35 1.5 87 87 NW 6 9 30.21 1023 10 16.0934 0 0
10:35 am 10:35 Cloudy 38 3.5 33 0.5 81 81 WNW 9 15 30.24 1024 10 16.0934 0 0
10:55 am 10:55 Cloudy 38 3.5 32 0.1 79 79 NW 12 19 30.24 1024 10 16.0934 0 0
11:15 am 11:15 Cloudy 39 3.8 33 0.6 80 80 WNW 8 13 30.24 1024 10 16.0934 0 0
11:35 am 11:35 Cloudy 38 3.6 33 0.5 80 80 NW 6 9 30.24 1024 7 11.26538 0 0
11:55 am 11:55 Cloudy 38 3.5 32 -0.2 77 77 WNW 9 15 30.24 1024 10 16.0934 0 0
12:15 pm 12:15 Cloudy 38 3.5 32 -0.1 78 78 WNW 9 15 30.24 1024 10 16.0934 0 0
12:35 pm 12:35 Cloudy 38 3.3 31 -0.4 77 77 WNW 8 13 30.24 1024 7 11.26538 0 0
12:55 pm 12:55 Cloudy 38 3.4 31 -0.3 77 77 WNW 7 11 30.24 1024 10 16.0934 0 0
1:15 pm 13:15 Cloudy 38 3.5 31 -0.5 75 75 WNW 7 11 30.24 1024 10 16.0934 0 0
1:35 pm 13:35 Cloudy 38 3.2 31 -0.7 76 76 W 9 15 30.24 1024 10 16.0934 0 0
1:55 pm 13:55 Cloudy 38 3.3 30 -0.9 74 74 W 8 13 30.24 1024 10 16.0934 0 0
2:15 pm 14:15 Cloudy 38 3.3 31 -0.7 75 75 WSW 10 17 30.24 1024 10 16.0934 0 0
2:35 pm 14:35 Cloudy 38 3.2 32 -0.2 79 79 W 5 7 30.24 1024 7 11.26538 0 0
2:55 pm 14:55 Cloudy 38 3.2 31 -0.8 75 75 W 6 9 30.24 1024 10 16.0934 0 0
3:15 pm 15:15 Cloudy 37 3 31 -0.6 77 77 WSW 8 13 30.24 1024 10 16.0934 0 0
3:35 pm 15:35 Cloudy 37 2.9 31 -0.8 77 77 WSW 10 17 30.24 1024 10 16.0934 0 0
3:55 pm 15:55 Cloudy 37 3 31 -0.6 77 77 WSW 10 17 30.24 1024 10 16.0934 0 0
4:15 pm 16:15 Cloudy 37 3 31 -0.7 77 77 WSW 9 15 30.24 1024 10 16.0934 0 0
4:35 pm 16:35 Cloudy 37 2.8 31 -0.5 79 79 SW 7 11 30.24 1024 7 11.26538 0 0
4:55 pm 16:55 Cloudy 37 2.8 31 -0.6 79 79 WSW 6 9 30.27 1025 10 16.0934 0 0
5:15 pm 17:15 Cloudy 37 2.8 30 -0.9 77 77 W 7 11 30.27 1025 10 16.0934 0 0
5:35 pm 17:35 Cloudy 37 2.5 30 -1.1 77 77 W 8 13 30.27 1025 10 16.0934 0 0
5:55 pm 17:55 Cloudy 37 2.5 30 -1.1 77 77 W 7 11 30.27 1025 10 16.0934 0 0
6:15 pm 18:15 Cloudy 36 2.4 30 -1.3 77 77 WSW 10 17 30.27 1025 10 16.0934 0 0
6:35 pm 18:35 Cloudy 36 2.2 30 -1.3 78 78 W 7 11 30.27 1025 10 16.0934 0 0
6:55 pm 18:55 Cloudy 36 2.2 29 -1.4 77 77 WSW 10 17 30.27 1025 10 16.0934 0 0
7:15 pm 19:15 Cloudy 36 2.1 29 -1.6 77 77 SW 9 15 30.27 1025 10 16.0934 0 0
7:35 pm 19:35 Cloudy 36 2 29 -1.7 77 77 SW 7 11 30.27 1025 10 16.0934 0 0
7:55 pm 19:55 Cloudy 35 1.6 28 -2.3 76 76 WSW 7 11 30.27 1025 10 16.0934 0 0
8:15 pm 20:15 Partly Cloudy 33 0.6 27 -2.6 79 79 SW 6 9 30.27 1025 10 16.0934 0 0
8:35 pm 20:35 Mostly Cloudy 33 0.5 27 -2.6 80 80 SW 7 11 30.27 1025 10 16.0934 0 0
8:55 pm 20:55 Mostly Cloudy 33 0.4 27 -2.6 81 81 SW 7 11 30.27 1025 10 16.0934 0 0
9:15 pm 21:15 Clear 32 0 27 -2.9 81 81 SW 6 9 30.27 1025 10 16.0934 0 0
9:35 pm 21:35 Partly Cloudy 31 -0.3 26 -3.1 82 82 SW 6 9 30.27 1025 10 16.0934 0 0
9:55 pm 21:55 Mostly Cloudy 31 -0.7 26 -3.2 83 83 SW 6 9 30.27 1025 10 16.0934 0 0
10:15 pm 22:15 Cloudy 32 -0.2 27 -2.9 82 82 SW 7 11 30.27 1025 10 16.0934 0 0
10:35 pm 22:35 Partly Cloudy 31 -0.7 26 -3.3 83 83 SW 6 9 30.27 1025 10 16.0934 0 0
10:55 pm 22:55 Mostly Cloudy 30 -0.9 26 -3.3 84 84 SW 5 7 30.27 1025 10 16.0934 0 0
11:15 pm 23:15 Cloudy 31 -0.4 26 -3.3 81 81 SW 6 9 30.27 1025 10 16.0934 0 0
11:35 pm 23:35 Partly Cloudy 31 -0.8 26 -3.5 82 82 SW 7 11 30.27 1025 10 16.0934 0 0
11:55 pm 23:55 Clear 29 -1.4 25 -3.8 84 84 SW 6 9 30.27 1025 10 16.0934 0 0

Powered by AerisWeather